Weather History for Alice, TX

Change the Weather History Date:

Monday, February 18, 2013

  Actual Average Record
Temperature  
Mean Temperature 76 °F -  
Max Temperature 89 °F 71 °F 89 °F (2013)
Min Temperature 62 °F 49 °F 34 °F (2001)
Cooling Degree Days 10    
Growing Degree Days 26 (Base 50)    
Moisture  
Dew Point 57 °F    
Average Humidity 61    
Maximum Humidity 80    
Minimum Humidity 26    
Precipitation  
Precipitation 0.00 in - - ()
Sea Level Pressure  
Sea Level Pressure 29.91 in    
Wind  
Wind Speed 14 mph (South)    
Max Wind Speed 23 mph    
Max Gust Speed 31 mph    
Visibility 10 miles    
Events      
Averages and records for this station are not official NWS values.
T = Trace of Precipitation, MM = Missing Value Source: NWS Daily Summary

Daily Weather History Graph

Daily Weather History Graph

Search for Another Location

Airport:

Trip Planner

Search our weather history database for the weather conditions in past years. The results will help you decide how hot, cold, wet, or windy it might be!

Date:

Astronomy

Feb. 18, 2013 Rise Set
Actual Time 7:06 AM CST 6:25 PM CST
Civil Twilight 6:42 AM CST 6:49 PM CST
Nautical Twilight 6:15 AM CST 7:16 PM CST
Astronomical Twilight 5:48 AM CST 7:44 PM CST
Moon 12:27 PM CST (2/18) 1:33 AM CST (2/18)
Length of Visible Light 12h 06m
Length of Day
11h 19m
First Quarter, 58% of the Moon is Illuminated
Feb 18
First Quarter
Feb 25
Full
Mar 4
Last Quarter
Mar 11
New
Mar 19
First Quarter

Hourly Weather History & Observations

Time (CST) Temp. Heat Index Dew Point Humidity Pressure Visibility Wind Dir Wind Speed Gust Speed Precip Events Conditions
12:53 AM 66.9 °F - 55.0 °F 66% 29.98 in 10.0 mi SSE 17.3 mph - N/A   Overcast
1:25 AM 66.2 °F - 55.4 °F 68% 29.97 in 10.0 mi South 18.4 mph 25.3 mph N/A   Overcast
1:53 AM 66.9 °F - 55.9 °F 68% 29.96 in 10.0 mi South 16.1 mph - N/A   Overcast
2:53 AM 66.9 °F - 55.9 °F 68% 29.93 in 10.0 mi SSE 15.0 mph - N/A   Overcast
3:53 AM 66.9 °F - 57.0 °F 70% 29.91 in 10.0 mi South 13.8 mph - N/A   Overcast
4:53 AM 66.9 °F - 57.9 °F 73% 29.89 in 10.0 mi SSE 12.7 mph - N/A   Overcast
5:53 AM 66.9 °F - 57.9 °F 73% 29.89 in 10.0 mi SSE 10.4 mph - N/A   Overcast
6:53 AM 66.9 °F - 59.0 °F 76% 29.90 in 10.0 mi SSE 9.2 mph - N/A   Overcast
7:53 AM 66.9 °F - 59.0 °F 76% 29.91 in 10.0 mi SSE 6.9 mph - N/A   Overcast
8:53 AM 69.1 °F - 60.1 °F 73% 29.92 in 10.0 mi South 10.4 mph - N/A   Overcast
9:53 AM 72.0 °F - 62.1 °F 71% 29.92 in 10.0 mi South 23.0 mph 31.1 mph N/A   Overcast
10:53 AM 75.0 °F - 62.1 °F 64% 29.92 in 10.0 mi South 20.7 mph 27.6 mph N/A   Overcast
11:02 AM 75.2 °F - 62.6 °F 65% 29.93 in 10.0 mi South 18.4 mph 27.6 mph N/A   Overcast
11:24 AM 80.6 °F 81.8 °F 62.6 °F 54% 29.92 in 10.0 mi SSW 20.7 mph 28.8 mph N/A   Mostly Cloudy
11:53 AM 80.1 °F 81.1 °F 61.0 °F 52% 29.91 in 10.0 mi South 19.6 mph 27.6 mph N/A   Mostly Cloudy
12:53 PM 82.9 °F 83.3 °F 61.0 °F 47% 29.89 in 10.0 mi South 12.7 mph 18.4 mph N/A   Mostly Cloudy
1:53 PM 84.0 °F 83.8 °F 59.0 °F 43% 29.86 in 10.0 mi SW 11.5 mph 20.7 mph N/A   Scattered Clouds
2:53 PM 87.1 °F 85.7 °F 55.9 °F 35% 29.83 in 10.0 mi SW 3.5 mph - N/A   Scattered Clouds
3:53 PM 89.1 °F 86.7 °F 53.1 °F 29% 29.82 in 10.0 mi North 9.2 mph - N/A   Partly Cloudy
4:53 PM 87.1 °F - 50.0 °F 28% 29.83 in 10.0 mi NNW 6.9 mph - N/A   Clear
5:53 PM 84.9 °F - 46.0 °F 26% 29.85 in 10.0 mi NNW 10.4 mph - N/A   Clear
6:53 PM 75.0 °F - 48.0 °F 38% 29.88 in 10.0 mi ENE 6.9 mph - N/A   Clear
7:53 PM 71.1 °F - 57.9 °F 63% 29.92 in 10.0 mi ENE 8.1 mph - N/A   Clear
8:53 PM 64.9 °F - 57.0 °F 75% 29.95 in 10.0 mi ENE 4.6 mph - N/A   Clear
9:53 PM 62.1 °F - 55.9 °F 80% 29.97 in 10.0 mi SE 6.9 mph - N/A   Clear
10:53 PM 66.9 °F - 59.0 °F 76% 29.99 in 10.0 mi South 8.1 mph - N/A   Clear
11:53 PM 66.0 °F - 59.0 °F 78% 29.99 in 10.0 mi South 8.1 mph - N/A   Clear